• Join FlightAware (Why Join?)
  • Login
  • US Flag 
01:08AM EST


 

Airport Tracker/Info


-or-


 

Live Flight TrackerFlight Track Log ✈ N900GT ✈ 09-Sep-2013 ✈ KDUA - KWDG

Flight Track Log - Related Links

Times and Time Zones

All times are in EDT time to prevent confusion due to time zone crossing. See the N900GT flight status page for this flight to view local times or setup timezone preferences in your user account.

Time Position Orientation Groundspeed Altitude Reporting Facility
EDT Latitude Longitude Course Direction KTS MPH feet Rate Location/Type
02:47PM 34.0253 -96.3914 321° Northwest 157 181 6,100  Level Kansas City Center
02:48PM 34.0775 -96.4056 347° North 252 290 7,800 1,740 Climbing Fort Worth Center
02:49PM 34.1194 -96.4300 334° Northwest 219 252 9,400 1,800 Climbing Fort Worth Center
02:50PM 34.1739 -96.4569 338° Northwest 207 238 11,400 1,800 Climbing Fort Worth Center
02:51PM 34.2222 -96.4867 333° Northwest 195 224 13,000 1,500 Climbing Fort Worth Center
02:52PM 34.2725 -96.5164 334° Northwest 195 224 14,500 1,440 Climbing Fort Worth Center
02:53PM 34.2609 -96.5717 321° Northwest  Level Estimated
02:53PM 34.3228 -96.5458 334° Northwest 200 230 15,900  Level Fort Worth Center
02:54PM 34.3833 -96.5806 335° Northwest 213 245 16,000  Climbing Fort Worth Center
02:55PM 34.4483 -96.6203 333° Northwest 236 272 16,000  Level Fort Worth Center
02:56PM 34.5153 -96.6600 334° Northwest 256 295 16,000  Level Fort Worth Center
02:57PM 34.5844 -96.6997 335° Northwest 263 303 16,000  Level Fort Worth Center
02:58PM 34.6514 -96.7419 333° Northwest 263 303 16,000  Level Fort Worth Center
02:59PM 34.7206 -96.7794 336° Northwest 263 303 16,000  Level Fort Worth Center
03:00PM 34.7894 -96.8219 333° Northwest 263 303 16,000  Level Fort Worth Center
03:01PM 34.8564 -96.8619 334° Northwest 263 303 16,000  Level Fort Worth Center
03:02PM 34.9256 -96.9019 335° Northwest 263 303 16,000  Level Fort Worth Center
03:03PM 34.9925 -96.9422 334° Northwest 263 303 16,000  Level Fort Worth Center
03:04PM 35.0592 -96.9822 334° Northwest 263 303 16,000  Level Fort Worth Center
03:05PM 35.1261 -97.0200 335° Northwest 263 303 16,000  Level Fort Worth Center
03:07PM 35.2433 -97.0908 334° Northwest 270 311 16,000  Level Kansas City Center
03:08PM 35.3106 -97.1311 334° Northwest 270 311 16,000  Level Kansas City Center
03:09PM 35.3900 -97.1778 334° Northwest 268 308 16,000  Level Kansas City Center
03:10PM 35.4564 -97.2183 334° Northwest 269 310 16,000 -720 Level Kansas City Center
03:11PM 35.5272 -97.2614 334° Northwest 284 327 14,600 -1,500 Descending Kansas City Center
03:12PM 35.6022 -97.3078 333° Northwest 303 349 13,000 -1,680 Descending Kansas City Center
03:13PM 35.6878 -97.3606 333° Northwest 293 337 11,200 -1,620 Descending Kansas City Center
03:14PM 35.7567 -97.4031 333° Northwest 283 326 9,700 -1,440 Descending Kansas City Center
03:15PM 35.8239 -97.4447 333° Northwest 275 316 8,300 -1,440 Descending Kansas City Center
03:16PM 35.8917 -97.4858 334° Northwest 271 312 6,800 -1,140 Descending Kansas City Center
03:17PM 35.9561 -97.5258 333° Northwest 264 304 6,000 -420 Descending Kansas City Center
03:18PM 36.0147 -97.5631 333° Northwest 246 283 6,000  Level Kansas City Center
03:19PM 36.0864 -97.6067 334° Northwest 240 276 6,000 -120 Level Kansas City Center
03:19PM 36.0919 -97.6069 358° North 240 276 5,900 -600 Descending Kansas City Center
03:20PM 36.1553 -97.6008 North 251 289 5,400 -600 Descending Kansas City Center
03:20PM 36.1586 -97.6019 345° North 246 283 5,300 -900 Descending Kansas City Center
03:21PM 36.2031 -97.6358 328° Northwest 211 243 4,500 -720 Descending Kansas City Center
03:22PM 36.2453 -97.6700 327° Northwest 201 231 3,900 -540 Descending Kansas City Center
03:22PM 36.2442 -97.6664 111° Southeast 211 243 4,000  Climbing Kansas City Center
03:23PM 36.2997 -97.6975 336° Northwest 198 228 3,900  Descending Kansas City Center
03:23PM 36.2947 -97.6917 137° Southeast 198 228 4,000  Climbing Kansas City Center
03:24PM 36.3578 -97.6911 360° North 206 237 3,900  Descending Kansas City Center
03:24PM 36.3517 -97.6889 164° South 205 236 4,000 -120 Climbing Kansas City Center
03:25PM 36.4192 -97.6869 North 204 235 3,800 -600 Descending Kansas City Center
03:26PM 36.4319 -97.7547 283° West 202 232 2,800 -1,020 Descending Kansas City Center
03:27PM 36.4175 -97.7908 244° Southwest 117 135 1,900 -240 Descending Kansas City Center
03:28PM 36.4300 -97.8103 309° West 196 226 2,600 -540 Climbing Kansas City Center
03:28PM 36.3947 -97.7933 159° South 90 104 1,400 -1,380 Descending Kansas City Center